Location: Newark
(3.0500°N, 36.0167°E)
Time: 04:10:49
(UTC+00:00)

Transit 2A Rocket - Pass Details

Date: 27 August 2019
Orbit: 592 x 911 km, 66.7° (Epoch: 19 September)

Event Time Altitude Azimuth Distance (km) Brightness Sun altitude
Rises 14:12:26 0° 203° (SSW) 3,534 8.6 21.5°
Reaches altitude 10° 14:14:59 10° 205° (SSW) 2,593 8.0 20.8°
Maximum altitude 14:21:03 74° 289° (WNW) 930 6.1 19.4°
Drops below altitude 10° 14:26:53 10° 14° (NNE) 2,495 7.7 17.9°
Sets 14:29:18 0° 16° (NNE) 3,392 8.3 17.3°
